Dewpoint
56 56 56 56 57 56 56 56 56 55 55 55 54 54 54 54 54 53 52 54 54 53 53 52 52 53 51 52 51 52 52 53 54 53 53 53 53 54 53 53 52 53 53 53 52 52 53 53 53 53 53 53 53 54 54 54 54 54 54 55 56 57 58 57 56 56 58 59 59 59 59 60 59 59 63 62 62 63 61 64 64 63 63 63 61
56 56 56 56 55 55 55 55 55 55 55 54 53 52 53 54 54 52 52 52 52 51 50 53 52 51 51 50 51 50 51 51 52 52 51 52 52 54 54 52 52 52 53 52 52 52 52 52 52 52 52 51 51 50 50 50 50 51 52 53 54 55 57 57 57 57 56 57 58 59 59 59 58 59 58 62 62 62 63 63 64 64 63 63 63
54 55 55 55 54 54 54 54 53 53 53 53 52 51 52 52 51 52 51 52 51 51 53 52 51 50 50 50 50 50 49 49 50 50 50 50 51 52 53 52 52 52 51 51 50 51 51 51 51 51 51 50 49 49 49 48 48 48 50 52 53 55 56 57 57 56 56 56 57 57 57 58 59 58 58 59 61 63 63 63 62 63 64 63 63
54 54 54 54 53 53 53 52 52 52 52 52 52 51 52 52 51 51 51 51 50 54 53 50 50 50 49 49 48 48 48 47 47 48 48 49 50 51 51 51 51 51 51 50 50 50 51 51 51 50 49 48 47 47 47 47 47 48 49 50 51 52 53 53 54 55 55 55 56 56 57 58 58 58 60 61 62 62 62 62 62 62 63 63 62
53 53 52 52 52 52 52 52 52 52 52 51 52 51 51 51 51 49 50 50 50 50 51 52 50 49 49 47 47 47 47 46 46 47 48 49 50 51 51 50 50 50 50 50 50 50 50 50 51 49 47 46 46 45 45 46 47 47 47 48 50 52 52 51 52 52 52 52 53 54 56 56 56 56 57 59 59 60 62 62 61 61 62 63 62
52 52 52 51 51 51 51 51 50 50 50 51 50 50 50 50 50 51 49 49 50 50 50 50 49 47 47 47 46 46 46 46 45 46 47 48 49 51 50 50 49 49 49 49 48 49 49 49 49 47 46 45 45 44 43 43 44 45 46 48 50 51 51 50 50 49 49 49 50 51 52 52 52 54 55 59 59 58 59 59 60 61 60 61 62
52 51 51 51 50 50 50 50 50 50 50 50 50 49 49 51 49 49 51 52 51 49 48 48 49 48 47 47 46 46 45 45 44 44 44 45 46 48 49 49 48 48 48 47 47 48 48 48 47 47 46 45 45 43 42 42 43 44 46 47 48 50 50 49 48 47 47 46 47 48 49 50 51 51 52 54 55 55 53 52 52 54 57 60 61
51 50 50 50 49 49 49 50 50 50 50 49 49 49 49 49 50 51 50 50 48 47 47 47 48 47 47 46 46 46 45 43 42 42 42 44 45 47 48 48 47 47 47 46 46 46 46 46 46 46 46 45 45 43 42 41 42 43 44 45 47 50 49 48 46 45 45 45 45 46 46 47 48 49 49 48 49 48 49 50 49 50 52 55 58
50 49 49 49 48 48 49 49 49 49 48 49 49 49 49 49 49 49 49 49 50 47 47 46 46 45 45 46 45 45 44 43 42 40 41 42 43 47 47 46 46 46 45 45 45 44 43 44 45 45 46 47 47 45 44 43 43 42 43 44 47 50 48 47 45 44 44 44 44 45 45 45 45 46 45 46 47 47 48 48 47 49 51 52 55
49 48 48 48 48 48 48 48 48 48 48 48 48 48 48 49 49 48 47 47 48 48 46 47 45 45 45 45 46 46 43 42 41 40 40 41 43 47 48 46 46 45 45 44 44 42 42 42 45 47 47 46 44 42 41 41 43 43 43 44 47 49 48 46 44 44 43 42 43 43 43 43 44 44 44 45 45 45 46 46 46 47 49 50 52
48 47 47 47 48 47 47 47 47 47 48 48 48 48 47 48 48 48 48 47 48 47 47 46 46 45 43 44 44 44 42 40 39 38 38 39 42 46 47 46 45 45 44 43 42 41 40 40 42 43 44 44 42 40 40 40 40 41 42 45 48 50 47 45 44 44 44 44 44 43 43 43 44 44 44 44 44 45 45 46 46 46 46 46 46
46 47 46 46 46 46 47 46 46 46 46 46 46 46 47 47 47 47 47 47 47 47 47 46 46 46 45 43 43 42 41 39 37 38 38 38 40 46 46 46 45 44 43 43 42 40 39 39 41 41 41 41 40 39 40 40 40 41 42 42 43 44 44 47 45 44 44 43 44 44 44 44 43 44 44 44 44 45 46 45 45 45 45 46 47
46 46 45 45 45 46 45 45 45 45 45 45 47 46 46 46 46 46 46 47 47 46 46 46 46 46 44 43 41 40 39 38 37 38 37 37 37 43 45 46 44 43 43 42 41 40 39 39 40 41 40 42 41 38 38 39 41 42 43 44 43 42 41 41 42 46 43 43 44 44 44 43 43 43 44 45 45 45 45 44 44 45 45 46 47
45 45 45 44 45 45 44 44 45 45 46 46 46 45 45 45 47 47 47 47 46 46 46 46 45 44 43 41 41 40 39 38 37 37 37 37 37 40 44 46 45 43 42 42 41 40 39 38 39 39 38 38 38 38 38 38 41 41 41 41 42 43 44 41 42 41 43 44 45 44 43 44 43 43 45 45 44 44 44 44 44 45 46 46 47
44 45 45 44 44 44 44 44 44 44 44 44 44 44 45 46 46 46 46 45 45 45 45 44 44 43 41 41 40 40 40 36 36 36 36 37 37 42 44 46 44 43 43 43 41 40 38 39 39 38 38 37 38 38 38 38 41 40 40 40 40 41 42 43 43 42 43 43 44 44 44 43 43 43 44 44 44 45 44 44 45 47 47 47 48
42 44 44 44 43 43 43 44 44 43 43 43 43 43 45 45 45 45 44 44 44 44 44 44 43 42 41 39 39 38 39 36 36 36 36 36 37 45 44 45 44 42 42 41 41 39 38 37 37 37 37 36 38 36 36 39 39 38 39 39 39 40 41 45 41 40 42 41 42 43 42 42 41 42 43 43 43 44 45 46 45 45 45 45 45
41 43 44 43 43 43 43 43 44 43 43 42 42 44 44 44 43 44 44 43 43 43 43 43 43 42 41 39 38 37 37 36 35 35 35 36 39 45 44 40 42 42 41 41 40 40 38 36 35 36 36 35 36 34 35 37 39 38 38 38 39 40 41 43 42 40 40 40 40 40 40 40 39 39 40 39 41 43 44 43 43 44 44 43 44
42 42 42 43 43 43 43 42 42 42 42 42 43 44 44 44 45 45 42 41 40 40 40 40 41 41 41 40 38 36 36 37 35 35 35 35 38 44 41 41 39 39 40 41 41 43 41 42 41 35 34 34 35 34 35 38 38 38 38 38 38 38 40 41 41 42 41 41 41 41 40 40 40 40 40 40 40 42 43 42 44 45 43 43 43
42 42 42 42 42 42 42 42 42 42 42 43 44 43 43 43 44 45 44 42 41 39 37 37 38 39 40 41 43 39 36 37 36 35 35 35 38 41 39 38 38 38 37 37 38 38 39 40 40 37 35 35 33 34 34 37 37 39 38 39 38 38 39 39 39 39 41 43 43 43 43 43 44 42 43 41 40 43 42 44 45 44 43 43 43
41 42 42 42 42 42 43 43 43 42 41 43 43 43 44 44 45 44 43 39 40 40 40 39 38 38 39 38 40 40 38 37 36 35 35 35 36 39 38 37 36 38 34 33 34 34 35 34 35 34 33 33 33 33 34 34 36 40 40 38 39 39 40 39 40 40 39 41 42 42 42 42 43 43 42 41 42 42 42 43 45 45 43 43 43
42 41 41 41 41 41 42 43 44 43 43 44 45 45 45 45 44 43 42 42 42 43 43 43 42 41 40 39 38 39 40 38 39 35 35 34 35 36 36 36 34 38 33 32 31 33 32 33 34 34 33 33 33 34 34 33 34 42 39 38 38 39 40 40 40 41 40 40 40 39 40 40 41 41 43 43 43 43 43 43 45 45 44 42 42
41 40 40 40 41 41 43 44 44 44 43 44 44 43 43 43 43 43 42 44 45 44 44 42 41 41 41 40 40 40 42 42 39 36 35 35 34 34 36 36 34 39 35 33 33 34 34 33 34 34 33 33 33 34 34 33 33 35 34 34 34 35 40 44 42 39 39 39 39 38 39 39 39 40 40 42 42 43 43 43 43 43 44 44 43
40 40 40 40 41 41 42 44 44 44 44 44 43 43 43 43 43 44 44 43 43 43 43 42 41 40 41 41 40 40 42 42 37 39 34 34 35 34 34 34 33 40 38 36 37 35 35 35 35 36 33 33 33 33 34 33 33 32 32 33 34 34 36 36 39 40 38 38 38 38 39 39 39 39 40 41 41 41 42 42 42 41 42 43 43
40 40 41 41 41 41 41 42 43 43 43 42 41 42 42 41 41 41 41 41 41 41 41 41 40 39 37 38 37 39 42 42 37 36 37 33 34 34 34 33 34 35 37 39 37 37 36 36 35 33 33 33 33 33 32 33 32 32 32 32 34 34 35 34 34 36 37 37 38 38 39 40 40 40 40 41 41 41 41 40 41 39 40 41 41
41 41 41 40 41 39 41 41 42 42 43 43 42 41 43 45 42 43 43 42 41 40 39 38 38 37 36 35 35 35 36 36 35 35 34 35 35 34 34 34 34 34 38 39 36 36 35 34 34 33 33 32 33 33 33 34 32 31 32 32 37 33 33 32 33 33 33 34 36 37 39 40 41 41 40 41 40 40 39 38 38 38 38 38 39
41 40 39 40 39 37 38 38 38 40 41 40 41 42 42 40 40 41 42 43 43 39 38 35 34 34 35 34 33 33 34 33 33 33 34 35 34 35 33 34 35 35 36 36 34 34 34 34 34 33 32 33 34 34 32 33 32 31 32 33 32 32 32 32 31 31 31 32 35 35 37 38 40 41 41 40 39 39 38 37 36 36 36 37 37
41 40 40 38 39 38 39 38 38 40 40 38 39 39 39 40 40 39 39 42 40 41 40 36 34 32 34 33 32 31 30 31 32 32 32 32 32 33 35 35 36 35 33 34 34 34 35 35 32 31 32 32 32 32 31 32 32 31 29 30 31 30 32 31 31 31 31 30 33 34 34 36 38 38 38 37 37 38 38 37 36 36 36 36 36
39 38 38 38 37 36 37 34 36 35 35 35 36 38 38 37 35 36 37 37 39 37 34 34 34 36 36 32 31 30 28 29 31 32 33 32 33 32 32 35 34 34 32 33 32 35 37 33 34 34 36 33 33 32 30 31 30 30 29 28 28 30 33 35 33 30 30 30 31 35 34 35 35 36 37 37 37 37 38 37 36 36 36 35 35
38 37 36 36 36 36 36 37 36 35 33 33 33 34 37 35 34 33 34 34 36 38 37 36 34 34 32 33 33 31 29 29 33 34 35 34 33 34 32 32 32 33 34 33 35 35 36 36 35 32 32 30 30 32 31 30 30 29 32 30 30 30 30 28 29 28 30 29 30 33 34 34 34 36 36 36 37 37 38 38 38 37 36 36 36
37 36 35 35 35 36 37 37 35 33 31 29 29 32 31 33 35 31 33 33 33 33 33 35 38 34 29 32 34 31 32 36 34 34 33 33 33 33 33 33 33 32 33 33 34 34 35 31 33 30 31 30 30 30 30 30 30 28 28 29 28 29 29 29 28 27 29 29 28 30 33 33 34 35 35 35 36 37 37 37 38 38 37 37 36
35 35 35 35 35 35 35 35 34 31 28 26 26 27 29 32 33 33 34 34 33 33 33 33 32 32 37 32 35 34 33 33 33 34 33 33 33 33 32 32 32 31 32 31 30 29 30 28 29 29 29 31 30 30 31 29 29 28 28 29 28 29 29 30 31 29 29 30 29 29 31 34 33 34 34 35 35 36 37 37 38 37 38 38 37
34 34 34 34 33 31 29 30 30 28 24 23 23 24 23 26 28 32 33 33 33 33 33 33 33 33 32 35 36 37 33 33 33 34 33 33 33 32 32 31 31 31 32 33 30 26 28 28 27 28 29 29 28 29 30 30 28 28 28 28 28 28 27 28 30 29 27 28 28 27 28 30 32 32 32 32 33 35 36 36 37 36 37 37 38
35 35 33 32 31 28 25 26 26 26 26 24 26 23 21 22 23 26 31 32 33 33 33 33 33 33 33 34 33 31 31 32 33 34 34 33 33 32 32 32 32 32 32 31 29 26 27 30 29 27 27 26 27 28 28 30 28 28 29 26 27 28 27 27 29 29 28 28 29 28 28 28 29 30 31 31 32 32 33 34 36 37 37 37 37
36 34 34 33 29 26 26 27 27 27 27 25 25 23 22 25 24 25 26 27 32 34 33 33 33 33 33 33 31 32 33 34 34 34 33 33 32 32 32 32 32 33 33 32 33 27 29 28 28 26 27 27 28 27 27 26 26 26 27 27 26 27 29 26 27 27 28 28 28 28 29 28 28 29 30 31 31 31 31 32 33 34 36 36 36
34 33 32 30 29 28 27 27 27 28 28 28 26 25 27 27 26 26 25 25 27 27 27 32 34 34 35 32 33 34 33 34 34 34 33 33 33 33 33 34 30 30 40 38 32 31 31 29 29 30 29 27 27 27 26 29 26 25 24 27 25 24 27 26 27 26 27 27 27 28 28 28 27 28 28 29 30 30 30 30 31 32 34 34 35
34 33 35 35 31 32 31 30 30 31 30 29 28 27 28 28 28 29 30 30 29 28 28 29 31 32 33 33 32 33 33 33 33 33 33 32 33 32 31 29 28 29 28 29 29 31 33 31 30 31 30 30 28 28 25 27 26 25 22 25 25 24 25 27 27 27 27 28 27 28 29 28 28 27 27 27 27 29 30 30 30 31 32 33 33
32 31 32 32 32 33 35 35 36 35 32 32 31 30 31 32 31 30 30 30 31 29 29 31 32 35 32 32 34 32 33 33 32 32 33 32 33 32 32 32 29 31 30 31 30 30 32 32 32 30 31 31 30 29 28 29 27 24 26 22 23 26 24 26 27 28 26 26 28 27 27 27 27 27 26 25 26 26 27 29 30 30 30 31 32
32 31 31 32 35 37 36 34 33 30 32 31 33 33 30 29 29 30 34 36 36 34 32 32 33 32 29 30 37 33 30 31 32 31 32 32 30 32 33 30 32 30 30 31 32 32 31 31 33 32 29 31 31 30 29 28 27 26 26 24 23 26 27 27 27 28 25 25 25 26 26 25 26 25 26 26 25 25 26 27 28 28 29 30 29
35 34 32 31 32 32 31 30 29 29 31 31 31 31 30 32 34 32 31 32 33 34 34 32 33 33 33 34 35 37 33 34 32 30 31 30 29 30 31 32 31 32 32 31 32 31 32 32 31 32 32 31 31 28 29 29 28 27 26 23 24 24 25 23 25 25 25 23 24 25 25 26 25 24 25 25 25 25 25 25 25 27 26 27 28
33 33 32 32 33 33 31 31 30 30 32 33 33 31 30 30 31 29 30 30 35 32 35 34 34 33 31 30 29 30 29 30 29 31 29 28 28 31 31 30 32 31 33 33 32 32 32 31 32 34 33 32 31 29 29 29 29 28 26 23 21 22 24 22 21 23 23 23 22 23 25 25 25 24 24 25 25 25 25 25 24 24 25 24 25
32 33 31 31 31 31 30 29 30 31 35 34 31 31 29 35 33 30 35 32 31 31 32 36 36 33 27 27 27 29 31 27 31 30 30 31 32 32 33 32 30 34 32 31 31 32 31 32 29 30 31 30 31 31 31 30 28 28 27 25 22 22 23 24 22 21 22 25 23 22 23 22 24 22 21 24 26 25 24 24 25 25 25 24 23
32 32 32 30 30 29 29 29 32 35 34 29 30 34 30 33 33 34 33 31 32 33 36 36 38 30 27 29 27 28 32 29 30 30 31 33 32 32 31 32 32 34 34 33 34 34 31 30 28 29 28 28 29 30 28 30 28 27 28 25 25 22 22 22 23 21 22 23 24 25 25 22 22 22 21 25 23 22 22 24 23 24 23 23 24
32 30 29 29 28 28 28 31 30 31 31 29 30 30 29 34 35 35 34 33 33 31 33 34 34 31 28 29 30 30 33 33 26 31 33 31 33 32 34 32 35 36 37 38 35 35 31 31 28 27 28 29 32 29 29 28 28 26 27 26 26 25 23 23 23 23 21 22 23 25 26 20 20 20 23 23 21 22 21 22 24 23 24 24 22
30 29 29 28 27 27 29 30 31 33 32 30 37 33 32 35 37 35 32 30 30 32 32 31 28 31 30 30 31 31 33 32 32 30 33 28 32 26 30 32 33 33 36 33 33 34 34 30 27 28 32 32 33 36 32 30 30 27 27 27 27 27 25 24 23 23 23 22 24 25 25 25 24 21 21 23 22 20 21 22 21 20 23 22 20
31 29 28 27 30 27 29 32 29 32 30 31 39 34 35 36 36 35 35 35 31 31 31 31 31 32 29 31 31 31 32 32 31 30 29 30 29 30 33 32 34 35 34 31 33 34 32 30 30 28 29 30 31 34 32 31 34 31 30 28 28 28 26 26 24 24 24 23 24 25 26 26 25 26 22 22 24 23 21 20 20 21 20 22 20
29 29 28 28 29 27 29 32 30 31 32 31 35 37 35 34 35 34 34 35 34 32 32 34 32 31 30 32 31 30 30 34 34 32 29 30 30 30 30 28 30 30 31 29 31 33 30 30 29 28 27 28 31 29 30 32 33 33 33 33 32 31 30 29 30 28 26 26 24 25 25 26 26 27 21 21 25 25 24 24 23 19 16 19 20
31 28 28 29 30 29 29 32 31 31 30 31 31 32 33 30 30 29 28 30 35 37 34 34 33 33 32 31 32 34 32 29 30 29 30 28 30 29 31 31 28 30 27 31 33 29 30 31 30 30 30 30 30 35 33 31 31 28 29 29 30 31 31 31 31 29 29 29 27 27 26 26 27 27 27 26 25 25 25 26 24 23 23 22 20
30 27 26 30 30 30 30 32 31 30 35 31 31 31 30 31 31 31 34 33 30 30 31 30 30 29 29 29 30 30 30 30 31 31 29 29 30 31 31 34 29 28 29 28 29 28 28 27 29 30 31 32 31 31 32 33 33 32 32 30 30 31 33 29 29 32 29 29 29 28 28 28 28 27 27 26 24 24 24 25 25 25 24 23 23
30 28 27 29 29 30 30 31 30 29 30 34 32 30 31 35 34 36 36 34 33 35 36 33 34 35 34 34 35 34 33 30 33 34 33 31 33 36 32 36 32 31 29 29 29 29 30 30 30 30 30 31 33 33 33 33 33 33 33 32 30 29 28 28 29 30 30 30 30 30 29 29 28 28 28 27 28 27 26 24 24 26 26 24 24
32 32 29 30 31 30 29 30 31 30 29 29 31 34 30 32 33 31 31 31 32 34 33 32 34 36 36 35 33 35 33 34 33 33 32 30 31 32 31 32 34 33 30 30 30 30 31 31 31 31 30 31 31 32 32 31 31 31 32 31 30 29 29 28 27 28 29 30 30 30 30 29 29 29 29 29 28 28 28 28 27 28 26 24 24
31 35 30 29 29 30 31 31 31 30 30 30 30 31 31 32 30 30 30 29 29 30 30 31 31 30 30 31 32 36 35 33 32 32 33 34 36 34 36 33 34 35 35 35 33 31 32 31 30 30 30 30 30 31 31 31 31 31 30 30 29 29 29 29 29 28 28 28 29 30 30 29 29 29 29 29 29 28 29 29 29 28 27 26 25